Temperature
8 8 8 8 8 8 7 7 7 7 7 7 7 7 7 7 7 7 7 7 7 7 6 6 6 6 5 5 5 5 5 4 4 3 3 3 3 3 3 3 2 2 2
7 7 7 7 7 7 6 6 6 6 6 6 6 6 6 6 6 6 6 6 6 6 5 5 5 5 4 4 4 4 4 4 3 3 3 2 2 2 2 1 1 1 1
6 6 6 6 6 6 5 5 5 5 5 5 5 5 5 5 5 5 5 5 5 5 4 4 4 4 3 3 3 3 3 3 2 2 2 1 1 1 1 1 0 0 0
6 5 5 5 5 5 5 5 4 4 4 4 4 4 4 4 4 4 4 4 4 4 3 3 3 3 2 2 2 2 2 2 1 1 1 0 -0 -0 -1 -1 -1 -1 -1
5 5 4 4 4 4 4 4 4 3 3 3 3 3 3 3 3 3 3 3 3 3 2 2 2 2 1 1 1 1 1 1 0 0 -0 -1 -1 -1 -1 -2 -2 -2 -2
4 4 4 3 3 3 3 3 3 2 2 2 2 2 2 2 2 2 2 2 2 2 1 1 1 1 0 0 0 -0 -0 -1 -1 -1 -1 -2 -2 -3 -3 -3 -3 -3 -3
3 3 3 3 2 2 2 2 1 1 1 1 2 2 2 2 1 1 1 1 1 1 1 0 0 -0 -0 -1 -1 -1 -1 -1 -2 -2 -2 -3 -3 -4 -4 -4 -4 -4 -4
3 3 2 2 2 1 1 1 1 1 1 1 1 1 1 1 1 1 1 0 0 0 -0 -0 -1 -1 -1 -1 -2 -2 -2 -2 -3 -3 -3 -4 -4 -4 -4 -5 -5 -5 -5
2 2 1 1 1 1 1 0 -0 0 0 0 0 0 0 0 0 0 -0 -0 -0 -1 -1 -1 -1 -2 -2 -2 -2 -2 -3 -3 -3 -4 -4 -4 -4 -5 -5 -5 -5 -5 -5
2 1 1 1 1 0 0 -0 -0 -0 -0 -0 -0 -0 -0 -0 -0 -0 -1 -1 -1 -1 -1 -2 -2 -2 -3 -3 -3 -3 -3 -4 -4 -4 -4 -5 -5 -5 -5 -5 -6 -6 -6
1 1 1 0 -0 -0 -0 -0 -0 -0 -0 -1 -1 -1 -1 -1 -1 -1 -1 -1 -1 -2 -2 -2 -2 -3 -3 -3 -4 -4 -4 -4 -4 -5 -5 -5 -5 -5 -5 -6 -6 -6 -6
1 1 0 -0 -0 -0 -0 -0 -0 -0 -1 -1 -1 -1 -1 -1 -1 -1 -2 -2 -2 -2 -2 -2 -3 -3 -3 -4 -4 -4 -4 -5 -5 -5 -5 -5 -5 -6 -6 -6 -6 -6 -6
1 0 0 -0 -0 -0 -0 -0 -0 -0 -1 -1 -1 -1 -1 -1 -1 -2 -2 -2 -2 -2 -2 -3 -3 -3 -3 -4 -4 -4 -5 -5 -5 -5 -5 -6 -6 -6 -6 -6 -6 -6 -6
1 0 0 -0 -0 -0 -0 -0 -0 -0 -1 -1 -1 -1 -1 -1 -1 -2 -2 -2 -2 -2 -3 -3 -3 -4 -4 -4 -4 -5 -5 -5 -5 -5 -6 -6 -6 -6 -6 -6 -6 -6 -6
1 0 0 -0 -0 -0 -1 -0 -0 -1 -1 -1 -1 -1 -1 -1 -2 -2 -2 -2 -2 -3 -3 -3 -3 -4 -4 -4 -5 -5 -5 -5 -6 -6 -6 -6 -6 -6 -6 -7 -7 -7 -7
1 0 0 -0 -0 -1 -1 -1 -1 -1 -1 -1 -1 -1 -1 -1 -2 -2 -2 -2 -3 -3 -3 -3 -3 -4 -4 -4 -5 -5 -5 -6 -6 -6 -6 -7 -7 -7 -7 -7 -7 -8 -8
1 0 0 -0 -0 -0 -1 -1 -1 -1 -1 -1 -1 -1 -1 -1 -2 -2 -2 -3 -3 -3 -3 -3 -4 -4 -4 -5 -5 -5 -5 -6 -6 -6 -7 -7 -7 -7 -7 -7 -8 -8 -8
1 0 0 -0 -0 -0 -1 -1 -1 -1 -1 -1 -1 -1 -1 -2 -2 -2 -2 -3 -3 -3 -3 -4 -4 -4 -5 -5 -5 -5 -6 -6 -6 -7 -7 -7 -8 -8 -8 -8 -8 -8 -8
1 0 0 -0 -0 -1 -1 -1 -1 -1 -1 -1 -1 -1 -1 -2 -2 -2 -2 -2 -2 -3 -3 -4 -4 -4 -5 -5 -5 -6 -6 -6 -7 -7 -7 -8 -8 -8 -8 -8 -8 -9 -9
1 0 0 -0 -1 -1 -1 -1 -1 -1 -1 -1 -1 -1 -2 -2 -2 -2 -2 -2 -3 -3 -3 -4 -4 -4 -5 -5 -5 -6 -6 -6 -7 -7 -7 -8 -8 -8 -9 -9 -9 -9 -9
0 0 -0 -0 -1 -1 -1 -1 -1 -1 -1 -1 -1 -1 -2 -2 -2 -2 -2 -3 -3 -3 -4 -4 -4 -4 -5 -5 -5 -6 -6 -6 -7 -7 -8 -8 -8 -9 -9 -9 -9 -9 -9
-0 -0 -0 -0 -1 -1 -1 -1 -1 -1 -1 -1 -1 -2 -2 -2 -2 -2 -2 -3 -3 -3 -4 -4 -4 -4 -5 -5 -6 -6 -6 -6 -7 -7 -8 -8 -8 -9 -9 -9 -9 -9 -9
-0 -1 -1 -1 -1 -1 -1 -1 -1 -1 -1 -1 -1 -2 -2 -2 -2 -2 -2 -3 -3 -3 -4 -4 -4 -4 -5 -5 -6 -6 -6 -6 -7 -7 -8 -8 -8 -9 -9 -9 -9 -9 -9
-1 -1 -1 -1 -1 -1 -1 -1 -1 -1 -1 -1 -2 -2 -2 -2 -2 -2 -3 -3 -3 -4 -4 -4 -4 -5 -5 -5 -6 -6 -6 -7 -7 -7 -8 -8 -8 -9 -9 -9 -9 -9 -9
-1 -1 -1 -1 -1 -1 -1 -1 -2 -2 -2 -2 -2 -2 -2 -2 -3 -3 -3 -3 -3 -4 -4 -4 -5 -5 -5 -5 -6 -6 -7 -7 -7 -8 -8 -8 -9 -9 -9 -9 -9 -9 -10
-1 -1 -1 -2 -2 -2 -2 -2 -2 -2 -2 -2 -2 -2 -3 -3 -3 -3 -3 -4 -4 -4 -4 -5 -5 -5 -5 -6 -6 -6 -7 -7 -8 -8 -9 -9 -9 -9 -9 -9 -10 -10 -10
Wind_Speed
5 5 5 5 5 5 5 5 5 5 5 5 5 6 6 7 6 6 7 7 7 7 7 7 7 6 5 5 5 4 4 2 0 1 2 3 4 4 6 7 8 8 8
5 5 5 5 5 6 5 5 5 6 5 6 6 6 7 7 7 8 8 8 8 8 8 8 7 6 7 6 5 5 4 4 2 1 2 3 4 4 4 5 6 7 8
5 5 5 5 5 5 5 5 5 6 6 6 6 7 7 7 8 8 8 9 9 8 8 7 6 6 7 5 6 5 4 5 4 3 2 3 3 3 3 4 5 5 7
5 5 5 4 4 5 5 5 5 6 6 6 6 7 7 7 7 8 8 8 8 8 8 7 6 6 5 5 5 5 5 5 5 4 3 3 3 3 3 3 3 3 3
6 5 5 4 5 5 5 5 6 6 6 6 6 6 6 6 6 7 7 8 8 8 8 7 7 8 8 6 5 4 5 4 4 4 3 3 3 3 3 3 2 3 3
6 6 5 5 5 5 5 5 6 6 6 6 7 6 6 6 10 11 9 7 7 7 6 6 6 7 9 10 10 9 7 4 3 3 2 2 2 2 2 2 2 3 3
7 6 6 6 6 5 6 5 5 5 6 6 6 6 6 7 11 11 11 7 6 6 5 5 4 5 7 5 7 10 9 9 6 3 2 0 1 1 1 2 1 1 3
7 7 6 6 6 6 6 5 5 4 5 4 5 5 5 6 9 10 10 7 5 5 4 3 3 3 2 3 4 5 5 5 5 3 1 1 2 3 2 2 2 2 3
8 8 7 7 7 7 6 5 4 4 4 3 3 4 4 4 6 8 8 4 4 3 3 2 2 3 4 5 4 3 4 4 5 6 4 4 5 4 2 1 1 2 3
8 8 7 7 7 7 6 5 4 4 4 4 3 3 3 2 3 6 7 3 3 2 2 3 4 3 4 4 3 1 2 2 2 3 5 5 6 6 6 3 1 1 1
8 7 7 7 7 6 6 4 5 5 4 3 3 1 1 1 2 2 4 3 2 1 0 1 3 5 4 4 2 1 2 1 1 1 2 2 3 3 3 3 1 2 2
8 8 7 7 6 6 6 5 5 6 5 4 2 1 1 1 1 1 1 2 3 2 1 2 3 5 4 4 3 3 3 3 1 1 1 2 2 2 3 4 5 5 6
9 8 7 7 6 6 7 7 5 5 4 4 3 3 2 2 2 3 2 2 1 2 2 3 4 4 3 3 3 3 3 2 1 1 2 2 2 3 3 4 5 6 8
9 8 7 7 6 6 5 6 6 6 5 5 4 4 3 3 3 3 2 2 2 2 1 2 3 3 2 2 2 2 1 1 1 1 2 3 2 2 3 3 3 3 4
9 8 7 7 7 6 6 6 6 6 7 6 6 5 5 5 6 7 5 4 3 4 2 1 0 1 1 2 1 2 1 1 1 2 2 3 3 4 4 3 3 3 3
9 8 7 6 6 6 5 4 8 8 11 11 10 8 7 8 7 8 8 7 7 6 3 2 2 3 3 3 3 3 2 2 2 3 3 3 4 4 5 4 3 4 5
9 9 7 7 7 7 6 6 5 6 9 10 12 12 11 10 10 9 8 8 8 7 3 3 4 4 4 4 4 4 3 3 3 3 4 4 5 5 5 5 5 5 6
9 10 9 7 7 7 7 7 6 5 4 5 7 11 12 12 11 10 9 7 5 4 4 4 5 5 5 5 5 4 4 4 4 4 5 5 5 5 6 6 5 6 7
9 7 7 7 7 7 7 6 6 6 6 5 4 5 10 11 11 11 10 5 5 5 5 6 6 5 5 5 5 5 5 5 5 5 5 6 5 5 6 6 6 10 10
8 12 10 7 7 7 7 7 7 7 7 6 7 6 4 5 5 6 6 5 6 6 6 7 6 6 6 6 5 5 5 5 6 6 6 6 6 6 7 8 8 8 8
7 9 13 9 8 8 8 8 8 8 8 8 8 8 10 7 7 8 7 7 8 8 7 7 7 6 6 6 6 6 7 6 6 6 6 6 6 6 7 8 8 9 9
6 7 7 8 8 8 8 8 8 8 9 9 7 7 13 8 7 7 8 8 8 8 7 7 7 6 7 7 7 7 7 7 7 7 7 7 6 7 8 8 9 9 9
6 7 7 7 7 10 9 8 8 9 9 9 8 7 7 8 8 8 9 8 7 7 8 8 7 7 9 11 11 8 8 8 8 7 7 7 7 7 8 9 10 10 11
7 7 8 7 7 8 8 8 8 9 9 9 8 8 8 8 9 9 9 7 7 7 8 9 9 10 11 11 12 14 15 15 13 11 10 9 9 8 9 10 11 12 12
6 7 7 7 7 8 8 8 8 9 9 9 8 8 8 8 8 8 8 7 7 8 9 10 10 11 13 14 14 14 16 17 16 14 13 9 10 11 11 11 11 12 13
6 7 7 7 7 7 8 8 8 9 9 8 8 8 8 8 8 8 7 7 7 7 8 9 11 13 14 14 16 17 17 17 18 18 15 10 10 11 11 11 13 13 13
Wind_Direction
93 86 81 71 67 67 64 55 49 45 42 47 49 52 51 46 45 58 62 61 68 62 56 62 58 51 51 41 39 40 35 34 110 60 42 17 19 19 22 33 38 36 28
111 100 90 81 75 71 66 57 56 57 52 53 56 60 59 55 54 62 66 64 68 66 60 61 56 57 54 44 44 43 36 28 60 68 34 22 26 18 20 29 32 33 25
121 111 99 89 84 79 74 68 65 66 62 59 63 66 64 62 64 66 73 72 70 67 64 65 60 63 60 51 50 46 36 36 43 77 51 28 26 23 28 29 29 19 17
130 122 114 107 102 96 89 79 73 72 70 67 69 72 73 71 70 73 76 76 73 66 60 58 56 62 69 62 55 47 47 49 50 62 56 34 28 15 32 22 11 3 358
138 133 130 124 115 106 96 86 79 75 74 70 73 74 81 84 82 82 79 80 77 69 56 48 49 60 68 69 66 55 56 57 55 55 46 31 20 16 12 355 358 339 340
148 147 143 137 126 117 109 99 91 82 75 70 65 64 65 80 93 93 91 78 75 71 62 47 47 48 55 57 59 57 59 65 64 62 47 41 4 348 342 353 356 4 337
156 156 155 150 141 134 126 115 105 96 88 77 66 63 62 79 90 92 92 87 78 71 63 51 45 42 48 45 51 49 44 50 61 104 96 52 296 291 318 332 330 299 277
163 165 164 159 150 142 134 129 120 108 100 88 75 67 63 74 92 96 98 88 81 71 62 57 44 14 35 80 68 47 33 27 38 64 137 230 247 248 224 226 251 284 281
173 175 172 165 159 155 152 146 134 125 114 103 92 79 69 60 89 105 106 96 82 61 40 35 27 349 15 66 81 53 26 4 21 30 28 16 3 354 2 72 352 348 322
181 175 170 167 165 164 161 150 140 137 134 123 108 93 76 35 81 112 117 115 99 69 29 9 7 359 6 35 103 76 359 330 356 8 15 18 22 22 28 50 142 174 282
168 164 164 166 165 162 155 150 147 143 137 135 130 110 64 23 34 100 136 143 153 146 56 344 328 346 355 359 23 174 296 19 68 17 358 357 3 9 13 10 348 192 222
160 163 165 165 165 161 157 157 155 153 155 163 165 193 247 303 323 302 178 173 171 167 226 268 293 327 345 352 355 329 356 50 63 16 352 339 336 333 327 322 309 278 251
163 168 168 167 168 165 169 170 165 167 172 182 186 209 233 236 269 275 269 267 245 193 235 275 305 329 359 359 343 357 34 52 22 334 316 302 290 285 292 302 301 295 284
171 174 172 172 175 176 178 179 179 183 188 192 200 214 225 233 240 245 254 272 273 272 271 294 320 334 356 334 347 8 14 284 265 269 285 287 291 288 292 298 298 307 304
176 178 179 181 180 184 188 195 194 201 195 196 205 204 206 226 236 228 215 216 219 233 227 196 253 299 303 298 287 279 279 301 304 280 279 289 295 296 294 290 279 281 276
182 185 186 185 186 187 189 207 225 217 224 224 218 212 222 231 242 239 240 243 248 252 228 204 236 245 252 258 266 272 265 262 261 264 271 276 284 287 289 285 272 269 276
189 188 188 189 191 192 192 197 212 228 232 232 231 231 232 236 240 242 243 246 250 248 229 227 237 242 245 247 247 245 249 254 253 257 263 266 270 274 278 280 279 278 278
193 195 193 194 195 196 198 201 203 206 219 238 239 239 240 239 239 240 241 243 246 238 216 228 237 240 240 241 242 243 248 252 250 254 259 262 263 267 273 273 272 273 280
195 196 195 193 196 199 199 200 206 212 220 226 230 246 241 241 241 240 236 219 221 230 230 233 235 236 237 237 238 238 239 244 245 246 253 255 255 258 265 265 268 278 282
202 203 195 194 197 200 201 205 211 216 223 226 230 230 215 213 222 230 223 215 223 231 232 235 235 233 233 234 234 235 238 242 244 244 248 250 251 253 260 264 267 271 273
199 203 201 200 203 205 206 211 214 216 222 228 233 229 216 212 223 225 224 224 226 230 231 233 234 232 231 229 228 230 235 242 240 241 245 247 247 254 257 260 264 267 270
198 200 200 205 207 209 212 213 214 219 225 231 236 235 236 226 223 228 229 230 228 227 225 225 230 229 225 223 223 227 234 241 242 239 242 245 247 253 257 260 264 267 269
200 202 207 211 211 218 221 217 218 222 226 229 230 229 227 227 229 231 233 233 229 228 228 226 229 234 236 233 229 223 230 239 238 232 238 246 248 251 255 259 262 266 268
205 208 211 214 213 216 220 223 223 225 228 230 230 232 231 230 232 234 233 232 229 231 231 230 233 236 238 239 239 236 237 242 243 239 236 242 249 253 255 258 261 263 267
210 214 216 217 217 220 223 226 228 228 230 232 233 234 234 233 235 236 234 230 230 234 235 235 238 241 243 243 244 245 248 252 251 246 240 240 247 250 254 258 262 266 266
217 221 224 223 223 224 226 229 231 230 231 233 234 234 234 234 236 237 235 232 233 236 239 240 239 241 246 249 252 254 257 259 260 258 254 250 250 253 254 260 263 264 268
Height
1503 1503 1503 1503 1503 1502 1502 1502 1501 1501 1500 1500 1500 1499 1499 1498 1498 1497 1497 1497 1497 1497 1496 1496 1496 1495 1495 1495 1494 1494 1493 1493 1492 1491 1490 1489 1489 1488 1487 1487 1486 1486 1486
1500 1500 1500 1500 1499 1499 1499 1498 1498 1498 1497 1497 1496 1496 1496 1495 1495 1495 1494 1494 1494 1494 1494 1493 1493 1493 1492 1492 1491 1491 1490 1490 1490 1489 1488 1487 1486 1485 1485 1484 1484 1484 1484
1497 1497 1497 1497 1496 1496 1496 1496 1495 1495 1495 1494 1494 1493 1493 1493 1493 1492 1492 1492 1492 1492 1492 1492 1491 1491 1491 1490 1489 1489 1488 1488 1487 1486 1485 1485 1484 1483 1482 1482 1481 1481 1481
1495 1494 1494 1494 1494 1494 1494 1493 1493 1493 1493 1492 1492 1492 1492 1491 1491 1491 1491 1491 1491 1490 1490 1490 1490 1489 1489 1488 1488 1487 1486 1486 1485 1484 1483 1483 1482 1481 1480 1480 1479 1478 1478
1492 1492 1492 1492 1491 1491 1492 1492 1491 1491 1491 1491 1491 1491 1490 1490 1490 1490 1490 1490 1490 1489 1489 1489 1489 1488 1487 1487 1486 1485 1485 1484 1483 1482 1481 1481 1480 1479 1479 1477 1477 1476 1475
1489 1489 1489 1489 1489 1489 1490 1490 1490 1490 1490 1490 1490 1490 1490 1490 1490 1489 1489 1489 1489 1489 1488 1488 1488 1487 1486 1486 1485 1484 1483 1483 1481 1481 1480 1479 1478 1478 1477 1476 1475 1474 1473
1486 1486 1486 1486 1487 1487 1488 1488 1489 1489 1489 1489 1489 1489 1489 1489 1489 1489 1488 1488 1488 1488 1487 1487 1486 1486 1485 1485 1484 1483 1482 1481 1480 1480 1478 1478 1477 1476 1475 1474 1473 1472 1471
1482 1483 1483 1484 1484 1485 1486 1487 1487 1488 1488 1488 1489 1489 1489 1488 1488 1488 1487 1487 1487 1487 1486 1486 1485 1485 1484 1483 1482 1482 1481 1480 1479 1478 1477 1476 1476 1475 1474 1473 1472 1471 1470
1479 1480 1480 1481 1482 1483 1484 1485 1486 1487 1487 1488 1488 1488 1488 1488 1487 1487 1487 1487 1486 1486 1486 1485 1484 1484 1483 1482 1482 1481 1480 1479 1478 1477 1476 1475 1474 1473 1472 1471 1470 1469 1467
1476 1477 1478 1479 1480 1481 1483 1484 1485 1486 1486 1487 1487 1487 1487 1487 1487 1486 1486 1486 1485 1485 1484 1484 1483 1483 1482 1481 1480 1479 1478 1478 1477 1476 1475 1474 1473 1472 1470 1469 1468 1467 1465
1473 1474 1475 1477 1478 1480 1481 1482 1483 1484 1485 1485 1486 1486 1486 1486 1486 1485 1485 1485 1484 1484 1483 1483 1482 1481 1481 1480 1479 1478 1477 1476 1475 1474 1473 1472 1471 1470 1468 1467 1466 1465 1463
1470 1471 1473 1475 1476 1478 1479 1480 1482 1482 1483 1484 1484 1484 1484 1484 1484 1484 1484 1483 1483 1482 1481 1481 1480 1479 1479 1478 1477 1476 1475 1474 1473 1472 1471 1470 1468 1467 1466 1464 1463 1462 1460
1467 1469 1470 1472 1474 1476 1477 1478 1479 1480 1481 1482 1482 1482 1483 1483 1482 1482 1482 1481 1480 1480 1479 1479 1478 1477 1476 1476 1475 1474 1473 1472 1470 1469 1468 1467 1465 1464 1462 1461 1459 1458 1456
1464 1466 1468 1470 1471 1473 1474 1476 1477 1478 1479 1479 1480 1480 1480 1480 1480 1480 1479 1479 1478 1477 1477 1476 1475 1475 1474 1473 1472 1471 1470 1469 1467 1466 1465 1464 1462 1461 1459 1457 1455 1454 1452
1461 1463 1465 1467 1468 1470 1471 1473 1474 1475 1476 1477 1477 1477 1477 1478 1478 1477 1477 1476 1475 1475 1474 1473 1473 1472 1471 1470 1469 1468 1467 1466 1464 1463 1461 1460 1458 1457 1455 1453 1451 1449 1448
1457 1459 1461 1463 1465 1467 1468 1470 1471 1472 1473 1473 1474 1474 1474 1475 1474 1474 1473 1473 1472 1472 1471 1470 1469 1468 1467 1467 1466 1465 1463 1462 1461 1459 1458 1456 1454 1453 1451 1449 1447 1445 1443
1454 1456 1458 1460 1461 1463 1464 1466 1467 1469 1469 1470 1470 1471 1471 1471 1471 1470 1470 1469 1469 1468 1467 1466 1466 1465 1464 1463 1462 1460 1459 1458 1456 1455 1453 1452 1450 1448 1446 1444 1443 1441 1438
1450 1452 1454 1456 1457 1459 1461 1462 1464 1464 1465 1466 1467 1467 1467 1467 1467 1466 1466 1466 1465 1464 1463 1463 1462 1461 1460 1458 1457 1456 1455 1453 1452 1450 1449 1447 1445 1443 1441 1439 1438 1435 1433
1446 1447 1449 1451 1453 1455 1456 1458 1459 1460 1461 1461 1462 1462 1463 1462 1462 1462 1462 1461 1460 1460 1459 1458 1457 1456 1455 1454 1453 1451 1450 1448 1447 1445 1443 1442 1440 1438 1436 1434 1432 1430 1428
1441 1443 1445 1447 1448 1450 1451 1452 1454 1455 1455 1456 1457 1458 1458 1457 1457 1457 1457 1456 1455 1455 1454 1453 1452 1451 1450 1449 1447 1446 1444 1443 1442 1440 1438 1437 1435 1433 1431 1429 1427 1425 1422
1436 1438 1440 1441 1443 1444 1445 1447 1448 1449 1450 1450 1451 1452 1452 1452 1451 1451 1451 1450 1450 1449 1448 1448 1447 1446 1445 1443 1442 1440 1439 1437 1436 1434 1433 1431 1429 1427 1425 1423 1421 1419 1417
1431 1432 1434 1435 1437 1438 1440 1441 1442 1443 1444 1444 1445 1446 1446 1445 1445 1445 1445 1444 1444 1443 1443 1441 1440 1440 1439 1437 1436 1434 1432 1431 1430 1428 1426 1424 1423 1421 1419 1417 1415 1413 1411
1425 1426 1428 1429 1431 1432 1433 1434 1435 1436 1437 1438 1438 1439 1439 1438 1438 1438 1438 1438 1437 1437 1436 1435 1434 1433 1432 1431 1429 1427 1426 1424 1423 1421 1419 1418 1416 1414 1412 1410 1408 1406 1404
1419 1420 1422 1423 1424 1425 1426 1427 1429 1429 1430 1431 1431 1431 1432 1431 1431 1431 1431 1430 1430 1429 1429 1428 1427 1426 1425 1423 1422 1420 1419 1417 1416 1414 1413 1410 1408 1407 1405 1403 1401 1399 1397
1414 1415 1416 1417 1418 1419 1420 1420 1421 1422 1423 1423 1424 1424 1424 1424 1423 1423 1423 1423 1422 1421 1421 1420 1419 1418 1417 1416 1415 1413 1412 1410 1409 1407 1405 1403 1401 1399 1398 1396 1394 1392 1390
1408 1409 1409 1410 1411 1412 1413 1413 1414 1415 1415 1415 1416 1416 1416 1416 1416 1415 1415 1415 1414 1414 1413 1412 1412 1411 1410 1409 1407 1406 1404 1403 1401 1400 1398 1396 1394 1392 1391 1388 1386 1384 1382